Paducah, KY

4:30 PM CDT on May 24, 2018 (GMT -0500)
Barkley Regional

Weather History for KPAH - July, 2013

Change the Weather History Date:

Tuesday, July 16, 2013

  Actual Average Record
Temperature  
Mean Temperature 80 °F 79 °F  
Max Temperature 91 °F 89 °F 102 °F (1980)
Min Temperature 69 °F 69 °F 56 °F (1967)
Degree Days  
Heating Degree Days 0 0  
Month to date heating degree days 0 0  
Since 1 June heating degree days 0 4  
Since 1 July heating degree days 0 0  
Cooling Degree Days 15 14  
Month to date cooling degree days 170 224  
Year to date cooling degree days 665 716  
Since 1 June cooling degree days 487 544  
Growing Degree Days 30 (Base 50)    
Moisture  
Dew Point 71 °F    
Average Humidity 76    
Maximum Humidity 100    
Minimum Humidity 52    
Precipitation  
Precipitation 0.00 in 0.16 in 1.25 in (1961)
Month to date precipitation 0.71 2.39  
Year to date precipitation 35.29 27.67  
Snow  
Snow 0.00 in 0.00 in 0.00 in (2002)
Month to date snowfall 0.0 0.0  
Since 1 June snowfall 0.0 0.0  
Since 1 July snowfall 0.0 0.0  
Snow Depth 0.00 in    
Sea Level Pressure  
Sea Level Pressure 30.25 in    
Wind  
Wind Speed 3 mph (ESE)    
Max Wind Speed 13 mph    
Max Gust Speed 16 mph    
Visibility 9 miles    
Events      
T = Trace of Precipitation, MM = Missing Value Source: NWS Daily Summary

Daily Weather History Graph

Daily Weather History Graph

Search for Another Location

Airport or City:

Astronomy

Jul. 16, 2013 Rise Set
Actual Time 5:47 AM CDT 8:14 PM CDT
Civil Twilight 5:18 AM CDT 8:43 PM CDT
Nautical Twilight 4:41 AM CDT 9:20 PM CDT
Astronomical Twilight 4:00 AM CDT 10:01 PM CDT
Moon 1:58 PM CDT (7/16) 12:13 AM CDT (7/16)
Length of Visible Light 15h 25m
Length of Day
14h 26m
First Quarter, 56% of the Moon is Illuminated
Jul 16
First Quarter
Jul 22
Full
Jul 29
Last Quarter
Aug 6
New
Aug 14
First Quarter

Hourly Weather History & Observations

Time (CDT) Temp. Heat Index Dew Point Humidity Pressure Visibility Wind Dir Wind Speed Gust Speed Precip Events Conditions
12:53 AM 73.0 °F - 71.1 °F 93% 30.22 in 10.0 mi Calm Calm - N/A   Clear
1:53 AM 72.0 °F - 71.1 °F 97% 30.22 in 10.0 mi Calm Calm - N/A   Clear
2:53 AM 71.1 °F - 69.1 °F 93% 30.22 in 10.0 mi Calm Calm - N/A   Clear
3:53 AM 70.0 °F - 69.1 °F 97% 30.22 in 9.0 mi Calm Calm - N/A   Clear
4:53 AM 70.0 °F - 69.1 °F 97% 30.24 in 7.0 mi Calm Calm - N/A   Clear
5:53 AM 70.0 °F - 69.1 °F 97% 30.25 in 2.5 mi Calm Calm - N/A   Clear
6:08 AM 71.6 °F - 69.8 °F 94% 30.26 in 6.0 mi Calm Calm - N/A   Clear
6:53 AM 73.9 °F - 71.1 °F 91% 30.27 in 8.0 mi Calm Calm - N/A   Clear
7:53 AM 78.1 °F - 72.0 °F 81% 30.28 in 10.0 mi Variable 3.5 mph - N/A   Clear
8:53 AM 81.0 °F 85.2 °F 72.0 °F 74% 30.30 in 10.0 mi SSE 5.8 mph - N/A   Clear
9:53 AM 82.9 °F 88.0 °F 72.0 °F 69% 30.30 in 10.0 mi Variable 4.6 mph - N/A   Clear
10:53 AM 84.9 °F 90.7 °F 72.0 °F 65% 30.30 in 10.0 mi East 3.5 mph - N/A   Scattered Clouds
11:53 AM 87.1 °F 94.5 °F 73.0 °F 63% 30.29 in 10.0 mi Variable 3.5 mph - N/A   Scattered Clouds
12:53 PM 88.0 °F 95.6 °F 73.0 °F 61% 30.27 in 10.0 mi SE 4.6 mph - N/A   Partly Cloudy
1:53 PM 89.1 °F 96.0 °F 72.0 °F 57% 30.26 in 10.0 mi ENE 6.9 mph - N/A   Mostly Cloudy
2:53 PM 89.1 °F 95.0 °F 71.1 °F 55% 30.25 in 10.0 mi ESE 3.5 mph - N/A   Scattered Clouds
3:53 PM 91.0 °F 98.2 °F 72.0 °F 53% 30.24 in 10.0 mi ESE 9.2 mph - N/A   Scattered Clouds
4:53 PM 90.0 °F 96.4 °F 71.1 °F 54% 30.24 in 10.0 mi SE 9.2 mph - N/A   Clear
5:53 PM 89.1 °F 95.0 °F 71.1 °F 55% 30.22 in 10.0 mi ESE 3.5 mph - N/A   Clear
6:53 PM 88.0 °F 92.9 °F 70.0 °F 55% 30.23 in 10.0 mi ESE 3.5 mph - N/A   Clear
7:53 PM 82.9 °F 88.0 °F 72.0 °F 69% 30.23 in 10.0 mi Calm Calm - N/A   Clear
8:53 PM 81.0 °F 85.2 °F 72.0 °F 74% 30.24 in 10.0 mi Calm Calm - N/A   Clear
9:53 PM 78.1 °F - 72.0 °F 81% 30.26 in 10.0 mi Calm Calm - N/A   Clear
10:53 PM 77.0 °F - 72.0 °F 84% 30.27 in 10.0 mi Calm Calm - N/A   Clear
11:53 PM 75.0 °F - 72.0 °F 90% 30.28 in 10.0 mi Calm Calm - N/A   Clear